Location: Dulzura
(32.6442°N, 116.7814°W)
Time: 05:07:44
(UTC+00:00)

YUBILEINY - Visible Passes

Search period start: 19 June 2024 00:00
Search period end: 29 June 2024 00:00
Orbit: 1477 x 1509 km, 82.5° (Epoch: 18 June)

Date Brightness Start Highest point End Pass type
(mag) Time Alt. Az. Time Alt. Az. Time Alt. Az.
19 Jun ? 06:30:54 10° N 06:39:07 44° ENE 06:40:14 43° E visible
19 Jun ? 08:28:08 10° NNW 08:35:33 33° W 08:36:07 33° W visible
20 Jun ? 05:42:32 10° NNE 05:49:01 23° ENE 05:50:59 21° E visible
20 Jun ? 07:37:45 10° NNW 07:46:18 64° W 07:46:53 63° WSW visible
21 Jun ? 06:48:05 10° N 06:56:46 70° E 06:57:39 66° ESE visible
21 Jun ? 08:46:55 10° NW 08:52:38 20° W 08:53:32 19° W visible
22 Jun ? 05:59:03 10° NNE 06:06:55 36° ENE 06:08:25 34° E visible
22 Jun ? 07:55:43 10° NNW 08:03:36 40° W 08:04:19 40° W visible
23 Jun ? 05:11:08 10° NNE 05:16:40 18° ENE 05:19:13 16° E visible
23 Jun ? 07:05:34 10° N 07:14:17 77° W 07:15:07 72° SW visible
23 Jun ? 09:08:18 10° WNW 09:09:31 10° WNW 09:10:45 10° W visible
24 Jun ? 06:16:05 10° N 06:24:38 58° E 06:25:55 53° ESE visible
24 Jun ? 08:14:09 10° NNW 08:20:44 25° W 08:21:49 24° W visible
25 Jun ? 05:27:18 10° NNE 05:34:41 30° ENE 05:36:44 27° E visible
25 Jun ? 07:23:23 10° NNW 07:31:37 49° W 07:32:38 47° WSW visible
26 Jun ? 04:40:04 10° NE 04:44:19 14° ENE 04:47:34 12° E visible
26 Jun ? 06:33:27 10° N 06:42:12 88° E 06:43:28 70° S visible
26 Jun ? 08:33:43 10° NW 08:37:43 14° W 08:39:22 13° W visible
27 Jun ? 05:44:08 10° N 05:52:29 48° E 05:54:18 42° ESE visible
27 Jun ? 07:41:35 10° NNW 07:48:49 31° W 07:50:13 29° WSW visible
28 Jun ? 04:55:39 10° NNE 05:02:24 24° ENE 05:05:10 21° E visible
28 Jun ? 06:51:07 10° NNW 06:59:37 60° W 07:01:04 54° SW visible
